FENGYUN 3A

Last updated on Thu Nov 21 2024 00:02:19 GMT+0000 (Coordinated Universal Time)

1 32958U 08026A 24325.26746782 .00000324 00000+0 17491-3 0 9994 2 32958 98.6240 268.0121 0008579 350.2448 9.8560 14.19283264853984
UTC large
Height (km)
Speed (km/s)
/
Latitude / Longitude
Inclination (degrees)
Orbital Period (minutes)
Azimuth
Elevation
Range (km)
Doppler Factor

Next 0 passes for location: London (51.5072 / 0.1276)

Sorry there are no passes over London.